When you browse on this site, cookies collect data to enhance your experience and personalize the content and advertising you see.
Visit our Privacy Policy to learn more. By continuing to use the site, you agree to this use of cookies and data.

Hourly Weather Porto Alegre

Today, 12 July, Sunday

Time Temperature Precipitation Wind Pressure Humidity
00:00 +13°C° 2.3 mm 3 mps 756 mmHg 95%
01:00 +14°C° 2.5 mm 2 mps 755 mmHg 95%
02:00 +14°C° 2.5 mm 2 mps 755 mmHg 95%
03:00 +14°C° 2.5 mm 2 mps 754 mmHg 95%
04:00 +14°C° 1 mm 1 mps 754 mmHg 95%
05:00 +15°C° 1 mm 1 mps 754 mmHg 96%
06:00 +14°C° 1 mm 0 mps 753 mmHg 96%
07:00 +15°C° 0.6 mm 1 mps 754 mmHg 96%
08:00 +15°C° 0.6 mm 1 mps 754 mmHg 96%
09:00 +15°C° 0.6 mm 1 mps 755 mmHg 96%
10:00 +15°C° 0.5 mm 1 mps 755 mmHg 96%
11:00 +15°C° 0.5 mm 1 mps 755 mmHg 95%
12:00 +16°C° 0.5 mm 1 mps 755 mmHg 95%
13:00 +16°C° 0 mm 1 mps 755 mmHg 93%
14:00 +16°C° 0 mm 2 mps 755 mmHg 91%
15:00 +16°C° 0 mm 3 mps 755 mmHg 90%
16:00 +16°C° 0.2 mm 3 mps 755 mmHg 89%
17:00 +14°C° 0.2 mm 3 mps 756 mmHg 88%
18:00 +14°C° 0.2 mm 3 mps 756 mmHg 87%
19:00 +15°C° 0 mm 2 mps 757 mmHg 86%
20:00 +14°C° 0 mm 1 mps 757 mmHg 85%
21:00 +13°C° 0 mm 0 mps 758 mmHg 84%
22:00 +14°C° 0 mm 1 mps 758 mmHg 85%
23:00 +14°C° 0 mm 1 mps 759 mmHg 86%

Tomorrow, 13 July, Monday

Time Temperature Precipitation Wind Pressure Humidity
00:00 +13°C° 0 mm 1 mps 759 mmHg 87%
01:00 +13°C° 0 mm 1 mps 759 mmHg 87%
02:00 +12°C° 0 mm 1 mps 759 mmHg 87%
03:00 +12°C° 0 mm 1 mps 759 mmHg 87%
04:00 +11°C° 0 mm 1 mps 759 mmHg 86%
05:00 +11°C° 0 mm 1 mps 760 mmHg 85%
06:00 +11°C° 0 mm 1 mps 760 mmHg 84%
07:00 +11°C° 0 mm 1 mps 760 mmHg 78%
08:00 +11°C° 0 mm 1 mps 761 mmHg 73%
09:00 +12°C° 0 mm 1 mps 762 mmHg 68%
10:00 +13°C° 0 mm 1 mps 762 mmHg 60%
11:00 +14°C° 0 mm 1 mps 762 mmHg 52%
12:00 +15°C° 0 mm 1 mps 762 mmHg 44%
13:00 +16°C° 0 mm 1 mps 762 mmHg 43%
14:00 +16°C° 0 mm 1 mps 761 mmHg 42%
15:00 +18°C° 0 mm 1 mps 760 mmHg 42%
16:00 +15°C° 0 mm 1 mps 761 mmHg 48%
17:00 +14°C° 0 mm 1 mps 761 mmHg 54%
18:00 +13°C° 0 mm 1 mps 762 mmHg 59%
19:00 +13°C° 0 mm 1 mps 762 mmHg 63%
20:00 +12°C° 0 mm 1 mps 763 mmHg 66%
21:00 +11°C° 0 mm 1 mps 763 mmHg 69%
22:00 +11°C° 0 mm 1 mps 764 mmHg 69%
23:00 +10°C° 0 mm 2 mps 764 mmHg 70%

Day after tomorrow, 14 July, Tuesday

Time Temperature Precipitation Wind Pressure Humidity
00:00 +9°C° 0 mm 2 mps 764 mmHg 70%
01:00 +9°C° 0 mm 2 mps 764 mmHg 71%
02:00 +8°C° 0 mm 2 mps 764 mmHg 72%
03:00 +8°C° 0 mm 2 mps 765 mmHg 72%
04:00 +8°C° 0 mm 2 mps 765 mmHg 71%
05:00 +7°C° 0 mm 2 mps 765 mmHg 69%
06:00 +6°C° 0 mm 2 mps 765 mmHg 68%
07:00 +7°C° 0 mm 2 mps 766 mmHg 65%
08:00 +7°C° 0 mm 2 mps 766 mmHg 63%
09:00 +8°C° 0 mm 2 mps 766 mmHg 60%
10:00 +9°C° 0 mm 2 mps 766 mmHg 53%
11:00 +10°C° 0 mm 2 mps 766 mmHg 45%
12:00 +12°C° 0 mm 2 mps 766 mmHg 37%
13:00 +13°C° 0 mm 2 mps 765 mmHg 37%
14:00 +13°C° 0 mm 2 mps 765 mmHg 38%
15:00 +13°C° 0 mm 2 mps 765 mmHg 38%
16:00 +12°C° 0 mm 2 mps 765 mmHg 43%
17:00 +10°C° 0 mm 2 mps 765 mmHg 48%
18:00 +9°C° 0 mm 2 mps 765 mmHg 53%
19:00 +10°C° 0 mm 1 mps 766 mmHg 56%
20:00 +9°C° 0 mm 1 mps 766 mmHg 58%
21:00 +8°C° 0 mm 1 mps 766 mmHg 60%
22:00 +8°C° 0 mm 1 mps 766 mmHg 62%
23:00 +8°C° 0 mm 1 mps 767 mmHg 64%

15 July, Wednesday

Time Temperature Precipitation Wind Pressure Humidity
00:00 +7°C° 0 mm 1 mps 767 mmHg 66%
01:00 +6°C° 0 mm 0 mps 767 mmHg 67%
02:00 +6°C° 0 mm 0 mps 766 mmHg 68%
03:00 +5°C° 0 mm 0 mps 766 mmHg 69%
04:00 +5°C° 0 mm 0 mps 766 mmHg 69%
05:00 +5°C° 0 mm 0 mps 766 mmHg 70%
06:00 +5°C° 0 mm 0 mps 766 mmHg 70%
07:00 +5°C° 0 mm 0 mps 766 mmHg 68%
08:00 +6°C° 0 mm 0 mps 767 mmHg 66%
09:00 +7°C° 0 mm 0 mps 767 mmHg 63%
10:00 +10°C° 0 mm 1 mps 767 mmHg 59%
11:00 +11°C° 0 mm 1 mps 766 mmHg 56%
12:00 +13°C° 0 mm 2 mps 766 mmHg 52%
13:00 +13°C° 0 mm 2 mps 765 mmHg 52%
14:00 +14°C° 0 mm 2 mps 765 mmHg 53%
15:00 +13°C° 0 mm 3 mps 764 mmHg 53%
16:00 +12°C° 0 mm 3 mps 764 mmHg 59%
17:00 +11°C° 0 mm 3 mps 764 mmHg 64%
18:00 +10°C° 0 mm 3 mps 764 mmHg 69%
19:00 +9°C° 0 mm 3 mps 764 mmHg 71%
20:00 +9°C° 0 mm 3 mps 764 mmHg 74%
21:00 +8°C° 0 mm 3 mps 764 mmHg 76%
22:00 +8°C° 0 mm 3 mps 764 mmHg 77%
23:00 +8°C° 0 mm 2 mps 764 mmHg 79%

16 July, Thursday

Time Temperature Precipitation Wind Pressure Humidity
00:00 +8°C° 0 mm 2 mps 763 mmHg 80%
01:00 +9°C° 0 mm 1 mps 763 mmHg 80%
02:00 +9°C° 0 mm 1 mps 763 mmHg 80%
03:00 +8°C° 0 mm 0 mps 763 mmHg 80%
04:00 +8°C° 0 mm 0 mps 762 mmHg 79%
05:00 +9°C° 0 mm 0 mps 762 mmHg 78%
06:00 +9°C° 0 mm 0 mps 762 mmHg 76%
07:00 +9°C° 0.2 mm 0 mps 762 mmHg 78%
08:00 +11°C° 0.2 mm 1 mps 762 mmHg 79%
09:00 +11°C° 0.2 mm 1 mps 762 mmHg 81%
10:00 +11°C° 0 mm 1 mps 762 mmHg 80%
11:00 +11°C° 0 mm 0 mps 762 mmHg 80%
12:00 +11°C° 0 mm 0 mps 762 mmHg 80%
13:00 +12°C° 0 mm 0 mps 762 mmHg 80%
14:00 +12°C° 0 mm 0 mps 761 mmHg 79%
15:00 +13°C° 0 mm 0 mps 761 mmHg 79%
16:00 +13°C° 0 mm 0 mps 761 mmHg 81%
17:00 +12°C° 0 mm 0 mps 761 mmHg 83%
18:00 +12°C° 0 mm 0 mps 761 mmHg 85%
19:00 +12°C° 0 mm 0 mps 762 mmHg 85%
20:00 +12°C° 0 mm 0 mps 762 mmHg 86%
21:00 +13°C° 0 mm 1 mps 762 mmHg 86%
22:00 +13°C° 0 mm 1 mps 762 mmHg 86%
23:00 +13°C° 0 mm 1 mps 762 mmHg 85%

17 July, Friday

Time Temperature Precipitation Wind Pressure Humidity
00:00 +14°C° 0 mm 1 mps 762 mmHg 85%
01:00 +13°C° 0 mm 1 mps 762 mmHg 86%
02:00 +13°C° 0 mm 1 mps 762 mmHg 87%
03:00 +13°C° 0 mm 1 mps 762 mmHg 87%
04:00 +13°C° 0 mm 1 mps 762 mmHg 88%
05:00 +13°C° 0 mm 1 mps 762 mmHg 90%
06:00 +13°C° 0 mm 1 mps 762 mmHg 91%
07:00 +14°C° 0 mm 1 mps 762 mmHg 90%
08:00 +14°C° 0 mm 1 mps 762 mmHg 90%
09:00 +15°C° 0 mm 1 mps 763 mmHg 89%
10:00 +16°C° 0 mm 1 mps 762 mmHg 86%
11:00 +18°C° 0 mm 2 mps 762 mmHg 84%
12:00 +19°C° 0 mm 2 mps 762 mmHg 81%
13:00 +20°C° 0 mm 2 mps 762 mmHg 78%
14:00 +21°C° 0 mm 2 mps 761 mmHg 75%
15:00 +22°C° 0 mm 3 mps 761 mmHg 73%
16:00 +21°C° 0 mm 3 mps 761 mmHg 77%
17:00 +20°C° 0 mm 3 mps 761 mmHg 82%
18:00 +19°C° 0 mm 3 mps 761 mmHg 87%
19:00 +18°C° 0 mm 3 mps 761 mmHg 89%
20:00 +18°C° 0 mm 3 mps 761 mmHg 90%
21:00 +18°C° 0 mm 3 mps 761 mmHg 92%
22:00 +17°C° 0 mm 3 mps 761 mmHg 91%
23:00 +17°C° 0 mm 2 mps 761 mmHg 91%
Show more